Location: Lombard
(41.8800°N, 88.0080°W)
Time: 23:08:57
(UTC-05:00)

A-11 Canister half - Pass Details

Date: 01 February 2023
Orbit: 1512 x 1687 km, 47.2° (Epoch: 20 March)

Event Time Altitude Azimuth Distance (km) Brightness Sun altitude
Rises 19:20:23 0° 292° (WNW) 4,672 12.6 -25.0°
Reaches altitude 10° 19:24:20 10° 277° (W) 3,676 12.0 -25.7°
Maximum altitude 19:30:43 21° 233° (SW) 2,871 10.9 -26.9°
Drops below altitude 10° 19:37:08 10° 188° (S) 3,671 11.0 -28.1°
Sets 19:41:06 0° 173° (S) 4,665 11.4 -28.9°
